FW8124 Weather Reports


time (UTC)temp
C
wind
direction
speed
KPH
gust
KPH
rain 1hr
cm
rain 24hr
cm
rain mn
cm
humidity
%
barometer
mb
20260507141552 17 130 1.6 12.9 0.08 0.23 0.23 83 1010.1
20260507140053 17 0 0.0 9.7 0.13 0.23 0.23 84 1010.1
20260507134550 16 104 4.8 11.3 0.18 0.23 0.23 83 1010.0
20260507133100 15 0 3.2 9.7 0.18 0.20 0.20 82 1010.5
20260507131610 15 274 4.8 25.7 0.15 0.15 0.15 81 1010.7
20260507130052 15 325 16.1 41.8 0.08 0.08 0.08 81 1010.8
20260507124553 18 231 9.7 24.1 0.05 0.05 0.05 81 1010.8
20260507123055 18 187 9.7 19.3 0.00 0.00 0.00 80 1010.9
20260507121554 18 234 9.7 22.5 0.00 0.00 0.00 78 1010.8
20260507120058 18 204 11.3 20.9 0.00 0.00 0.00 77 1010.9
20260507114558 18 202 11.3 27.4 0.00 0.00 0.00 77 1011.3
20260507113100 18 171 11.3 25.7 0.00 0.00 0.00 77 1011.0
20260507111553 18 203 12.9 27.4 0.00 0.00 0.00 77 1011.1
20260507110053 18 198 12.9 25.7 0.00 0.00 0.00 77 1011.2
20260507104556 18 174 9.7 27.4 0.00 0.00 0.00 78 1011.4
20260507103055 18 208 11.3 25.7 0.00 0.00 0.00 79 1011.4
20260507101554 18 226 12.9 24.1 0.00 0.00 0.00 79 1011.4
20260507100049 18 198 9.7 25.7 0.00 0.00 0.00 79 1011.4
20260507094554 18 173 14.5 24.1 0.00 0.00 0.00 78 1011.3
20260507093055 18 222 11.3 29.0 0.00 0.00 0.00 77 1011.3
20260507091556 18 243 14.5 24.1 0.00 0.00 0.00 76 1011.6
20260507090054 18 205 11.3 25.7 0.00 0.00 0.00 76 1011.4
20260507084554 18 184 11.3 29.0 0.00 0.00 0.00 76 1011.3
20260507083053 18 202 12.9 22.5 0.00 0.00 0.00 76 1011.2
20260507081554 18 202 12.9 27.4 0.00 0.00 0.00 77 1011.2
20260507080115 18 234 12.9 27.4 0.00 0.00 0.00 78 1011.4
20260507074558 18 177 12.9 24.1 0.00 0.00 0.00 78 1011.2
20260507073058 18 190 12.9 29.0 0.00 0.00 0.00 78 1011.2
20260507071607 18 218 12.9 24.1 0.00 0.00 0.00 79 1011.2
20260507070055 18 198 9.7 19.3 0.00 0.00 0.00 79 1011.0
20260507064555 17 209 12.9 29.0 0.00 0.00 0.00 80 1010.7
20260507063056 17 185 12.9 27.4 0.00 0.00 0.00 81 1010.5
20260507061558 17 239 11.3 22.5 0.00 0.00 0.00 82 1010.7
20260507060059 17 184 11.3 24.1 0.00 0.00 0.00 82 1010.6
20260507054554 17 206 11.3 19.3 0.00 0.00 0.00 82 1010.6
20260507053120 17 209 9.7 19.3 0.00 0.00 0.00 82 1010.6
20260507051605 17 196 9.7 20.9 0.00 0.00 0.00 82 1010.4
20260507050059 17 194 11.3 17.7 0.00 0.00 0.00 82 1010.3
20260507044559 17 204 8.0 19.3 0.00 0.00 0.00 82 1010.2
20260507043053 17 218 11.3 22.5 0.00 0.00 0.00 81 1010.3
20260507041557 17 202 9.7 19.3 0.00 0.00 0.00 81 1010.3
20260507040100 17 143 11.3 19.3 0.00 0.00 0.00 81 1010.2
20260507034556 17 206 9.7 19.3 0.00 0.00 0.00 80 1010.1
20260507033101 17 239 9.7 19.3 0.00 0.00 0.00 80 1010.0
20260507031558 17 232 9.7 22.5 0.00 0.00 0.00 79 1010.2
20260507030059 17 196 9.7 17.7 0.00 0.00 0.00 79 1010.3
20260507024603 17 178 8.0 20.9 0.00 0.00 0.00 78 1010.4
20260507023054 17 159 3.2 11.3 0.00 0.00 0.00 78 1010.4
20260507021601 17 167 3.2 11.3 0.00 0.00 0.00 78 1010.5
20260507020053 17 130 1.6 11.3 0.00 0.00 0.00 78 1010.6
20260507014602 17 192 4.8 11.3 0.00 0.00 0.00 78 1010.9
20260507013053 17 138 3.2 14.5 0.00 0.00 0.00 79 1011.0
20260507011552 17 186 9.7 20.9 0.00 0.00 0.00 79 1010.9
20260507010104 17 196 8.0 16.1 0.00 0.00 0.00 79 1011.0
20260507004601 17 195 4.8 14.5 0.00 0.00 0.00 79 1010.8
20260507003055 17 215 8.0 16.1 0.00 0.00 0.00 79 1011.0
20260507001555 17 199 6.4 14.5 0.00 0.00 0.00 79 1010.8
20260507000051 17 180 8.0 16.1 0.00 0.00 0.00 79 1011.0
20260506234550 17 179 4.8 12.9 0.00 0.00 0.00 79 1011.1
20260506233058 17 187 4.8 12.9 0.00 0.00 0.00 78 1011.3
20260506231558 18 182 3.2 12.9 0.00 0.00 0.00 78 1011.4
20260506230053 18 194 4.8 11.3 0.00 0.00 0.00 78 1011.4
20260506224553 18 186 4.8 12.9 0.00 0.00 0.00 77 1011.4
20260506223052 18 188 4.8 12.9 0.00 0.00 0.00 77 1011.4
20260506221552 18 209 4.8 12.9 0.00 0.00 0.00 77 1011.3
20260506220056 18 256 6.4 11.3 0.00 0.00 0.00 78 1011.4
20260506214604 18 222 4.8 11.3 0.00 0.00 0.00 78 1011.5
20260506213053 18 216 4.8 16.1 0.00 0.00 0.00 78 1011.8
20260506211603 18 232 4.8 16.1 0.00 0.00 0.00 78 1011.9
20260506210056 18 246 8.0 16.1 0.00 0.00 0.00 78 1011.9
20260506204555 18 230 6.4 16.1 0.00 0.00 0.00 79 1011.7
20260506203052 18 229 4.8 17.7 0.00 0.00 0.00 78 1011.6
20260506201556 18 250 8.0 16.1 0.00 0.00 0.00 78 1011.5
20260506200103 18 258 8.0 16.1 0.00 0.00 0.00 78 1011.1
20260506194605 18 205 6.4 14.5 0.00 0.00 0.00 78 1011.0
20260506193056 18 244 8.0 19.3 0.00 0.00 0.00 77 1010.8
20260506191605 18 225 6.4 16.1 0.00 0.00 0.00 77 1010.8
20260506190056 18 242 6.4 17.7 0.00 0.00 0.00 77 1010.7
20260506184554 18 221 8.0 20.9 0.00 0.00 0.00 78 1010.5
20260506183053 18 233 8.0 16.1 0.00 0.00 0.00 77 1010.4
20260506181601 18 243 8.0 17.7 0.00 0.00 0.00 77 1010.2
20260506180115 18 219 8.0 16.1 0.00 0.00 0.00 77 1010.3
20260506174554 19 234 11.3 24.1 0.00 0.00 0.00 77 1010.2
20260506173119 19 249 9.7 20.9 0.00 0.00 0.00 77 1010.3
20260506171553 19 227 8.0 24.1 0.00 0.00 0.00 76 1010.3
20260506170053 19 210 11.3 22.5 0.00 0.00 0.00 76 1010.1
20260506164551 19 257 9.7 24.1 0.00 0.00 0.00 76 1010.2
20260506163100 19 234 11.3 25.7 0.00 0.00 0.00 74 1010.2
20260506161555 19 228 14.5 24.1 0.00 0.00 0.00 74 1010.2
20260506160053 19 207 11.3 29.0 0.00 0.00 0.00 75 1010.3
20260506154557 19 222 12.9 25.7 0.00 0.00 0.00 73 1010.2
20260506153057 20 231 16.1 30.6 0.00 0.00 0.00 72 1010.2
20260506151554 20 190 14.5 29.0 0.00 0.00 0.00 72 1010.3
20260506150100 20 192 16.1 30.6 0.00 0.00 0.00 71 1010.3
20260506144605 19 248 17.7 32.2 0.00 0.00 0.00 73 1010.5
20260506143053 20 244 11.3 22.5 0.00 0.00 0.00 72 1010.4